Location: Home
(42.5358°N, 72.7383°W)
Time: 05:32:02
(UTC-04:00)

COSMOS 2251 DEB - Pass Details

Date: 01 July 2022
Orbit: 769 x 1233 km, 74.1° (Epoch: 15 August)

Event Time Altitude Azimuth Distance (km) Brightness Sun altitude
Exits shadow 03:31:15 16° 251° (WSW) 2,239 ? -15.1°
Maximum altitude 03:35:15 31° 304° (WNW) 1,668 ? -14.7°
Drops below altitude 10° 03:41:07 10° 4° (N) 2,904 ? -14.0°
Sets 03:44:16 0° 15° (NNE) 3,939 ? -13.6°
